{"data":{"norad_id":53264,"intl_designator":"2022-086Y","name":"STARLINK-3950","alt_names":[],"object_type":"PAYLOAD","status":"ACTIVE","operator":null,"country":"US","launch_date":"2022-07-24","launch_site_code":"AFETR","launch_vehicle":null,"mission":null,"orbit_class":"UNKNOWN","rcs_meters":null,"size_class":null,"mass_kg":null,"dimensions":null,"purposes":["comms"],"wikipedia_slug":null,"has_3d_model":false,"image_url":null,"decayed_at":null,"tle_current":{"epoch":"2026-05-25T04:19:21.110880Z","epoch_age_seconds":55966,"freshness":"FRESH","line1":"1 53264U 22086Y   26145.18010545  .00000462  00000+0  47130-4 0  9990","line2":"2 53264  53.2134 210.7407 0001052  78.0962 282.0148 15.08840288212612","mean_motion":15.08840288,"eccentricity":0.0001052,"inclination_deg":53.2134,"raan_deg":210.7407,"arg_perigee_deg":78.0962,"mean_anomaly_deg":282.0148,"bstar":4.713e-5,"rev_number":21261,"period_min":95.437536461115,"perigee_km":539.01474773915,"apogee_km":540.47026958777,"semimajor_km":6917.8795086635,"source":"CELESTRAK","updated_at":"2026-05-25T13:38:17.364813Z"}}}